Location: Borea
(45.6167°N, 23.0167°E)
Time: 12:59:16
(UTC+00:00)

IRIDIUM 160 - Visible Passes

Search period start: 23 February 2024 00:00
Search period end: 04 March 2024 00:00
Orbit: 776 x 779 km, 86.4° (Epoch: 22 February)

Date Brightness Start Highest point End Pass type
(mag) Time Alt. Az. Time Alt. Az. Time Alt. Az.
23 Feb ? 02:47:20 10° N 02:52:25 49° E 02:57:27 10° SSE visible
23 Feb ? 04:28:50 10° NNW 04:32:46 22° W 04:36:42 10° SW visible
23 Feb ? 17:31:15 10° W 17:33:06 12° WNW 17:34:58 10° NW visible
24 Feb ? 02:14:12 10° NNE 02:18:42 28° ENE 02:23:09 10° SE visible
24 Feb ? 03:54:42 10° NNW 03:59:30 38° W 04:04:17 10° SSW visible
24 Feb ? 16:55:18 10° WSW 16:59:09 21° WNW 17:03:01 10° NNW visible
25 Feb ? 01:41:32 10° NNE 01:44:50 17° ENE 01:48:06 10° ESE visible
25 Feb ? 03:20:54 10° N 03:26:05 68° W 03:31:16 10° S visible
26 Feb ? 02:47:20 10° N 02:52:34 69° E 02:57:46 10° S visible
26 Feb ? 04:29:36 10° NW 04:32:40 16° WNW 04:35:43 10° WSW visible
27 Feb ? 02:14:02 10° N 02:18:55 39° E 02:23:47 10° SSE visible
27 Feb ? 03:55:06 10° NNW 03:59:28 27° W 04:03:48 10° SW visible
27 Feb ? 16:56:36 10° WSW 16:59:29 15° WNW 17:02:24 10° NW visible
28 Feb ? 01:41:02 10° NNE 01:45:09 23° ENE 01:49:14 10° SE visible
28 Feb ? 03:21:08 10° NNW 03:26:08 48° W 03:31:07 10° SSW visible
29 Feb ? 01:08:45 10° NE 01:11:14 13° ENE 01:13:42 10° E visible
29 Feb ? 02:47:26 10° N 02:52:41 84° W 02:57:54 10° S visible
29 Feb ? 04:31:06 10° WNW 04:32:30 11° WNW 04:33:55 10° W visible
01 Mar ? 02:13:58 10° N 02:19:07 55° E 02:21:41 28° SSE visible
01 Mar ? 03:55:42 10° NNW 03:59:23 20° WNW 04:02:02 14° WSW visible
01 Mar ? 16:59:07 10° WNW 16:59:53 10° WNW 17:00:39 10° WNW visible
02 Mar ? 01:40:46 10° NNE 01:45:25 31° ENE 01:46:49 27° ESE visible
02 Mar ? 03:21:28 10° NNW 03:26:08 34° W 03:27:12 31° WSW visible
03 Mar ? 01:07:58 10° NNE 01:11:35 19° ENE 01:12:28 18° E visible
03 Mar ? 02:47:36 10° N 02:52:45 60° W 02:52:53 60° W visible
